Regional Weather Roundup
Issued by NWS Little Rock, AR

Home | Current Version | Previous Version | Text Only | Print | Product List | Glossary Off
Versions: 1 2 3 4 5 6 7 8 9 10 11 12 13 14 15 16 17 18 19 20 21 22 23 24 25 26 27 28 29 30 31 32 33 34 35 36 37 38 39 40 41 42 43 44 45 46 47 48 49 50

000
ASUS44 KLZK 221005
RWRLZK

WEATHER ROUNDUP FOR ARKANSAS
NATIONAL WEATHER SERVICE LITTLE ROCK AR
500 AM CDT MON MAY 22 2017

NOTE: "FAIR" INDICATES FEW OR NO CLOUDS BELOW 12,000 FEET WITH NO
SIGNIFICANT WEATHER AND/OR OBSTRUCTIONS TO VISIBILITY.

ARZ001-003-010-029-221100-
NORTHWEST ARKANSAS

CITY           SKY/WX    TMP DP  RH WIND       PRES   REMARKS
FAYETTEVILLE   CLOUDY    50  50 100 S5        30.15S
FORT SMITH     CLOUDY    60  55  83 CALM      30.14S
HARRISON       CLOUDY    52  48  86 CALM      30.15R
BENTONVILLE    CLOUDY    55  50  82 CALM      30.14F
ROGERS         CLOUDY    54  52  93 SE3       30.14F
SILOAM SPGS    CLOUDY    54  46  76 E3        30.13F
HIGHFILL       CLOUDY    53  51  93 CALM      30.14S
$$

ARZ004-005-016-221100-
NORTH CENTRAL ARKANSAS

CITY           SKY/WX    TMP DP  RH WIND       PRES   REMARKS
BATESVILLE     CLOUDY    54  52  94 CALM      30.15R
FLIPPIN        CLOUDY    52  46  82 NE3       30.13R
MTN HOME       CLOUDY    52  50  93 CALM      30.14R
$$

ARZ040-041-221100-
WEST CENTRAL ARKANSAS

CITY           SKY/WX    TMP DP  RH WIND       PRES   REMARKS
MENA           CLOUDY    55  55 100 CALM      30.15F
MOUNT IDA      CLOUDY    57  54  89 CALM      30.12S
$$

ARZ009-017-025-026-028-221100-
NORTHEAST ARKANSAS

CITY           SKY/WX    TMP DP  RH WIND       PRES   REMARKS
JONESBORO      PTCLDY    55  51  86 N5        30.13S
NEWPORT        MOCLDY    57  54  89 N5        30.14R
WALNUT RIDGE   MOCLDY    57  48  72 CALM      30.14S
BLYTHEVILLE    CLOUDY    57  53  86 N6        30.14R
$$

ARZ022-023-033-042-044-221100-
CENTRAL ARKANSAS

CITY           SKY/WX    TMP DP  RH WIND       PRES   REMARKS
LITTLE ROCK    CLOUDY    61  50  67 NE5       30.13R
N LITTLE ROCK    N/A     60  49  66 N6        30.12F
JACKSONVILLE   CLOUDY    58  52  79 N5        30.11F
CONWAY           N/A     59  57  94 NE3       30.11F
SEARCY         CLOUDY    58  50  75 NW3       30.16R
HOT SPRINGS    CLOUDY    60  57  89 N3        30.14R
RUSSELLVILLE   CLOUDY    56  54  93 CALM      30.13S
CLINTON        FAIR      54  52  94 CALM      30.16R
$$

ARZ036-221100-
EAST ARKANSAS

CITY           SKY/WX    TMP DP  RH WIND       PRES   REMARKS
WEST MEMPHIS   CLOUDY    60  54  80 N5        30.11S
$$

ARZ050-053-066-070-073-221100-
SOUTHWEST ARKANSAS

CITY           SKY/WX    TMP DP  RH WIND       PRES   REMARKS
ARKADELPHIA    FAIR      60  57  89 N7        30.13F
CAMDEN         CLOUDY    59  55  88 N3        30.13F
TEXARKANA      LGT RAIN  63  63 100 CALM      30.11F
EL DORADO      CLOUDY    62  60  93 NW9       30.09F
DE QUEEN       CLOUDY    60  58  92 E3        30.10F
$$

ARZ056-057-069-221100-
SOUTHEAST ARKANSAS

CITY           SKY/WX    TMP DP  RH WIND       PRES   REMARKS
PINE BLUFF     CLOUDY    60  55  83 N5        30.12R
STUTTGART      CLOUDY    63  46  55 NE3       30.14R
MONTICELLO     CLOUDY    61  59  93 CALM      30.12R

$$





USA.gov is the U.S. government's official web portal to all federal, state and local government web resources and services.